Location: Newark
(44.3248°N, 23.7839°E)
Time: 14:40:19
(UTC+00:00)

X-37B - Pass Details

Date: 06 February 2022
Orbit: 329 x 342 km, 45.0° (Epoch: 18 May)

Event Time Altitude Azimuth Distance (km) Brightness Sun altitude
Rises 17:51:07 0° 277° (W) 2,120 5.8 -23.6°
Reaches altitude 10° 17:53:33 10° 256° (WSW) 1,276 4.2 -24.0°
Enters shadow 17:54:52 16° 230° (SW) 983 3.2 -24.2°
